Valentine, NE

6:38 PM CST on November 19, 2017 (GMT -0600)
Miller Field

Weather History for KVTN - April, 2013

Change the Weather History Date:

Saturday, April 13, 2013

  Actual Average Record
Temperature  
Mean Temperature 35 °F 46 °F  
Max Temperature 45 °F 59 °F 89 °F (1908)
Min Temperature 24 °F 32 °F 3 °F (1997)
Degree Days  
Heating Degree Days 30 19  
Month to date heating degree days 340 281  
Since 1 July heating degree days 6245 6410  
Cooling Degree Days 0 0  
Month to date cooling degree days 0 0  
Year to date cooling degree days 0 0  
Moisture  
Dew Point 32 °F    
Average Humidity 88    
Maximum Humidity 100    
Minimum Humidity 76    
Precipitation  
Precipitation T in 0.07 in 0.90 in (1993)
Month to date precipitation 0.80 0.79  
Year to date precipitation 3.60 2.60  
Snow  
Snow 0.00 in 0.10 in 8.00 in (1993)
Month to date snowfall 8.4 2.3  
Since 1 July snowfall 46.2 30.9  
Snow Depth 3.00 in    
Sea Level Pressure  
Sea Level Pressure 29.76 in    
Wind  
Wind Speed 11 mph (SE)    
Max Wind Speed 25 mph    
Max Gust Speed 30 mph    
T = Trace of Precipitation, MM = Missing Value Source: NWS Daily Summary

Daily Weather History Graph

Daily Weather History Graph

Search for Another Location

Airport or City:

Trip Planner

Search our weather history database for the weather conditions in past years. The results will help you decide how hot, cold, wet, or windy it might be!

Date:

Astronomy

Apr. 13, 2013 Rise Set
Actual Time 7:03 AM CDT 8:22 PM CDT
Civil Twilight 6:34 AM CDT 8:51 PM CDT
Nautical Twilight 5:58 AM CDT 9:27 PM CDT
Astronomical Twilight 5:21 AM CDT 10:04 PM CDT
Moon 8:52 AM CDT (4/13) 11:52 PM CDT (4/13)
Length of Visible Light 14h 17m
Length of Day
13h 19m
Waxing Crescent, 10% of the Moon is Illuminated
Apr 13
Waxing Crescent
Apr 18
First Quarter
Apr 25
Full
May 2
Last Quarter
May 9
New

Hourly Weather History & Observations

Time (CDT) Temp. Windchill Dew Point Humidity Pressure Visibility Wind Dir Wind Speed Gust Speed Precip Events Conditions
12:52 AM 35.1 °F 26.9 °F 30.0 °F 82% 30.03 in - WNW 11.5 mph - N/A   Overcast
1:29 AM 33.8 °F 27.7 °F 30.2 °F 87% 29.95 in - NW 6.9 mph - N/A   Scattered Clouds
1:52 AM 33.1 °F 30.0 °F 28.9 °F 85% 30.01 in - WNW 3.5 mph - N/A   Clear
2:52 AM 30.0 °F 20.5 °F 28.0 °F 92% 30.01 in - SW 11.5 mph - N/A   Clear
3:52 AM 30.0 °F 20.5 °F 27.0 °F 88% 29.99 in - WSW 11.5 mph - N/A   Clear
4:52 AM 27.0 °F 20.5 °F 25.0 °F 92% 29.98 in - WSW 5.8 mph - N/A   Clear
5:52 AM 25.0 °F 19.3 °F 23.0 °F 92% 29.96 in - SW 4.6 mph - N/A   Clear
6:52 AM 24.1 °F - 21.9 °F 91% 29.94 in - Calm Calm - N/A   Clear
7:52 AM 25.0 °F - 24.1 °F 96% 29.91 in - Calm Calm - N/A   Clear
8:52 AM 30.0 °F - 27.0 °F 88% 29.88 in - Calm Calm - N/A   Clear
9:52 AM 36.0 °F 30.3 °F 30.9 °F 82% 29.84 in - SSE 6.9 mph - N/A   Clear
10:52 AM 37.0 °F 27.7 °F 32.0 °F 82% 29.82 in - SSE 16.1 mph - N/A   Clear
11:52 AM 37.9 °F 28.9 °F 32.0 °F 79% 29.79 in - SE 16.1 mph - N/A   Mostly Cloudy
12:52 PM 39.0 °F 30.6 °F 33.1 °F 79% 29.73 in - SE 15.0 mph - N/A   Overcast
1:52 PM 39.0 °F 30.6 °F 33.1 °F 79% 29.71 in - ESE 15.0 mph - N/A   Overcast
2:37 PM 41.0 °F 31.6 °F 35.6 °F 81% 29.61 in - ESE 20.7 mph 29.9 mph N/A   Scattered Clouds
2:52 PM 42.1 °F 32.6 °F 36.0 °F 79% 29.65 in - ESE 23.0 mph - N/A   Partly Cloudy
3:52 PM 43.0 °F 34.2 °F 37.0 °F 80% 29.62 in - SE 20.7 mph 27.6 mph N/A   Clear
4:52 PM 45.0 °F 38.2 °F 37.9 °F 76% 29.62 in - ESE 15.0 mph - N/A   Partly Cloudy
5:52 PM 42.1 °F 35.7 °F 37.0 °F 82% 29.61 in - ESE 11.5 mph - N/A   Partly Cloudy
6:52 PM 41.0 °F 33.5 °F 37.0 °F 86% 29.61 in - ESE 13.8 mph - N/A   Mostly Cloudy
7:52 PM 39.9 °F 32.5 °F 36.0 °F 86% 29.60 in - ESE 12.7 mph - N/A   Overcast
8:48 PM 39.2 °F 35.0 °F 37.4 °F 93% 29.56 in - East 5.8 mph - 0.00 in Rain Light Rain
8:52 PM 39.0 °F 32.3 °F 37.0 °F 93% 29.61 in - East 10.4 mph - 0.00 in Rain Light Rain
9:12 PM 37.4 °F 30.3 °F 35.6 °F 93% 29.55 in - East 10.4 mph - 0.00 in   Overcast
9:52 PM 37.9 °F 31.5 °F 36.0 °F 93% 29.60 in - East 9.2 mph - 0.00 in   Overcast
10:52 PM 37.0 °F 28.9 °F 35.1 °F 93% 29.59 in - ESE 12.7 mph - N/A   Overcast
11:20 PM 37.4 °F 28.5 °F 35.6 °F 93% 29.51 in - ESE 15.0 mph 23.0 mph N/A   Overcast
11:52 PM 41.0 °F 31.4 °F 39.0 °F 93% 29.52 in - ESE 21.9 mph 26.5 mph N/A   Overcast